Location: Burla
(50.9568°N, 10.4983°E)
Time: 22:06:34
(UTC+00:00)

Cosmos 2297 Rocket - Pass Details

Date: 18 January 2026
Orbit: 838 x 843 km, 71.0° (Epoch: 17 February)

Event Time Altitude Azimuth Distance (km) Brightness Sun altitude
Exits shadow 06:13:27 - 333° (NNW) 3,207 4.8 -9.0°
Reaches altitude 10° 06:15:56 10° 347° (NNW) 2,475 4.3 -8.7°
Maximum altitude 06:20:06 20° 35° (NE) 1,841 4.1 -8.1°
Drops below altitude 10° 06:24:16 10° 83° (E) 2,467 5.7 -7.5°
Sets 06:27:22 0° 99° (E) 3,398 7.2 -7.0°
